Weather in Korobets

Russia / Smolensk Oblast     54°31′05″N   33°28′55″E
temp.,
°C
wind,
m/s
gust,
m/s
humid.,
%
clouds,
%
prec.,
mm/h
press.,
hPa
HPBL,
m
11 april, sun
sun1100:00+3s412765 0.0 1025211
03:00+2ssw411785 0.0 1026206
06:00+2ssw38825 0.0 1026131
09:00+7ssw46635 0.0 1028250
12:00+13ssw46490 0.0 1028793
15:00+14ssw44435 0.0 10281354
18:00+14sse24520 0.0 1028125
21:00+9sse22650 0.0 103015
12 april, mon
mon1200:00+7se33730 0.0 103128
03:00+5se33770 0.0 103130
06:00+4ese337916 0.0 103151
09:00+9ese5116342 0.0 1030459
12:00+12ese6938100 0.0 1028855
15:00+10ese51061100 0.0 1027626
18:00+11se3879100 0.0 1026453
21:00+9ese3791100 0.0 1026169
13 april, tue
tue1300:00+8e3794100 0.0 1024142
03:00+8e2294100 0.0 102314
06:00+7se1193100 0.0 102310
09:00+10se3584100 0.0 1022164
12:00+15sse4662100 0.0 1022488
15:00+19sse4750100 0.0 10211936
18:00+17se485943 0.1 1020395
21:00+12se377667 0.1 1020117
14 april, wed
wed1400:00+10se348492 0.0 102058
03:00+10sse378599 0.0 1019146
06:00+9sse389399 0.0 1019198
09:00+10sse2791100 0.0 1019299
12:00+13sse4675100 0.3 1018795
15:00+15s3465100 0.8 1017920
18:00+13se2277100 0.9 101664
21:00+11s1290100 1.9 101731
15 april, thu
thu1500:00+10ne2392100 0.9 101640
03:00+10ese3988100 1.1 1015305
06:00+8se3794100 0.1 1015233
09:00+9s2494100 0.3 1016256
12:00+12sse347713 0.1 1015640
15:00+15ssw2258100 0.3 10141269
18:00+15n116495 0.4 101486
21:00+11nne238799 3.2 101563